When you browse on this site, cookies collect data to enhance your experience and personalize the content and advertising you see.
Visit our Privacy Policy to learn more. By continuing to use the site, you agree to this use of cookies and data.
  • In Österreich
  • Länderverzeichnis
  • Für 7 Tage
  • Wassertemperatur
  • Wetterkarte
  • News
  • Widgets
  • user-avatar
    Anmelden

    Stündliche Wetter Bregenz

    Heute, 28 Mai, Donnerstag

    Zeit Temperatur Niederschläge Wind Luftdruck Luftfeuchtigkeit
    00:00 +5°C° 0 mm 1 m/S 653 mmHg 92%
    01:00 +5°C° 0 mm 1 m/S 653 mmHg 93%
    02:00 +5°C° 0 mm 1 m/S 653 mmHg 93%
    03:00 +5°C° 0 mm 1 m/S 652 mmHg 93%
    04:00 +5°C° 0 mm 1 m/S 652 mmHg 93%
    05:00 +5°C° 0 mm 0 m/S 652 mmHg 88%
    06:00 +7°C° 0 mm 0 m/S 653 mmHg 83%
    07:00 +8°C° 0 mm 0 m/S 653 mmHg 78%
    08:00 +11°C° 0 mm 1 m/S 653 mmHg 71%
    09:00 +12°C° 0 mm 1 m/S 653 mmHg 63%
    10:00 +13°C° 0 mm 2 m/S 654 mmHg 56%
    11:00 +13°C° 0.3 mm 2 m/S 654 mmHg 58%
    12:00 +13°C° 0.3 mm 3 m/S 653 mmHg 60%
    13:00 +13°C° 0.3 mm 3 m/S 653 mmHg 63%
    14:00 +12°C° 0.6 mm 3 m/S 653 mmHg 67%
    15:00 +12°C° 0.6 mm 3 m/S 652 mmHg 72%
    16:00 +11°C° 0.6 mm 3 m/S 652 mmHg 76%
    17:00 +10°C° 0.2 mm 3 m/S 651 mmHg 79%
    18:00 +9°C° 0.2 mm 3 m/S 651 mmHg 82%
    19:00 +8°C° 0.2 mm 3 m/S 651 mmHg 84%
    20:00 +7°C° 0 mm 2 m/S 651 mmHg 87%
    21:00 +5°C° 0 mm 2 m/S 651 mmHg 89%
    22:00 +5°C° 0 mm 1 m/S 650 mmHg 91%
    23:00 +4°C° 0 mm 1 m/S 650 mmHg 91%

    Morgen, 29 Mai, Freitag

    Zeit Temperatur Niederschläge Wind Luftdruck Luftfeuchtigkeit
    00:00 +4°C° 0 mm 1 m/S 650 mmHg 91%
    01:00 +4°C° 0 mm 1 m/S 650 mmHg 91%
    02:00 +3°C° 0 mm 1 m/S 650 mmHg 91%
    03:00 +3°C° 0 mm 1 m/S 649 mmHg 91%
    04:00 +2°C° 0 mm 1 m/S 649 mmHg 92%
    05:00 +3°C° 0 mm 1 m/S 649 mmHg 88%
    06:00 +5°C° 0 mm 1 m/S 649 mmHg 85%
    07:00 +6°C° 0 mm 1 m/S 650 mmHg 81%
    08:00 +7°C° 0 mm 2 m/S 650 mmHg 72%
    09:00 +8°C° 0 mm 2 m/S 650 mmHg 63%
    10:00 +10°C° 0 mm 3 m/S 650 mmHg 53%
    11:00 +11°C° 0 mm 3 m/S 650 mmHg 52%
    12:00 +12°C° 0 mm 4 m/S 650 mmHg 50%
    13:00 +13°C° 0 mm 5 m/S 650 mmHg 48%
    14:00 +13°C° 0 mm 4 m/S 650 mmHg 50%
    15:00 +13°C° 0 mm 4 m/S 649 mmHg 51%
    16:00 +13°C° 0 mm 4 m/S 649 mmHg 53%
    17:00 +12°C° 0 mm 4 m/S 649 mmHg 59%
    18:00 +10°C° 0 mm 4 m/S 648 mmHg 65%
    19:00 +9°C° 0 mm 3 m/S 648 mmHg 71%
    20:00 +7°C° 0 mm 3 m/S 647 mmHg 77%
    21:00 +6°C° 0 mm 2 m/S 647 mmHg 83%
    22:00 +4°C° 0 mm 2 m/S 647 mmHg 89%
    23:00 +4°C° 0 mm 1 m/S 647 mmHg 89%

    übermorgen, 30 Mai, Samstag

    Zeit Temperatur Niederschläge Wind Luftdruck Luftfeuchtigkeit
    00:00 +4°C° 0 mm 1 m/S 647 mmHg 90%
    01:00 +4°C° 0 mm 1 m/S 646 mmHg 91%
    02:00 +3°C° 0 mm 1 m/S 646 mmHg 91%
    03:00 +3°C° 0 mm 1 m/S 646 mmHg 91%
    04:00 +2°C° 0 mm 0 m/S 646 mmHg 91%
    05:00 +4°C° 0 mm 1 m/S 646 mmHg 88%
    06:00 +5°C° 0 mm 1 m/S 647 mmHg 84%
    07:00 +7°C° 0 mm 1 m/S 647 mmHg 81%
    08:00 +7°C° 0 mm 2 m/S 647 mmHg 75%
    09:00 +8°C° 0 mm 3 m/S 647 mmHg 70%
    10:00 +9°C° 0 mm 3 m/S 648 mmHg 65%
    11:00 +10°C° 0 mm 3 m/S 648 mmHg 61%
    12:00 +10°C° 0 mm 4 m/S 648 mmHg 58%
    13:00 +11°C° 0 mm 4 m/S 648 mmHg 54%
    14:00 +11°C° 0 mm 4 m/S 648 mmHg 55%
    15:00 +11°C° 0 mm 4 m/S 647 mmHg 56%
    16:00 +11°C° 0 mm 4 m/S 647 mmHg 57%
    17:00 +10°C° 0 mm 4 m/S 647 mmHg 61%
    18:00 +8°C° 0 mm 3 m/S 647 mmHg 66%
    19:00 +7°C° 0 mm 3 m/S 646 mmHg 71%
    20:00 +6°C° 0 mm 2 m/S 646 mmHg 77%
    21:00 +4°C° 0 mm 2 m/S 646 mmHg 83%
    22:00 +3°C° 0 mm 1 m/S 646 mmHg 89%
    23:00 +3°C° 0 mm 1 m/S 645 mmHg 90%

    31 Mai, Sonntag

    Zeit Temperatur Niederschläge Wind Luftdruck Luftfeuchtigkeit
    00:00 +2°C° 0 mm 1 m/S 645 mmHg 91%
    01:00 +2°C° 0 mm 1 m/S 645 mmHg 92%
    02:00 +2°C° 0 mm 1 m/S 645 mmHg 92%
    03:00 +1°C° 0 mm 1 m/S 645 mmHg 93%
    04:00 +1°C° 0 mm 1 m/S 644 mmHg 93%
    05:00 +3°C° 0 mm 1 m/S 645 mmHg 87%
    06:00 +4°C° 0 mm 1 m/S 646 mmHg 82%
    07:00 +6°C° 0 mm 1 m/S 646 mmHg 76%
    08:00 +8°C° 0 mm 1 m/S 646 mmHg 69%
    09:00 +8°C° 0 mm 2 m/S 647 mmHg 63%
    10:00 +10°C° 0 mm 2 m/S 647 mmHg 56%
    11:00 +12°C° 0 mm 2 m/S 647 mmHg 53%
    12:00 +12°C° 0 mm 3 m/S 647 mmHg 49%
    13:00 +13°C° 0 mm 3 m/S 647 mmHg 46%
    14:00 +13°C° 0 mm 3 m/S 647 mmHg 47%
    15:00 +13°C° 0 mm 4 m/S 647 mmHg 49%
    16:00 +13°C° 0 mm 4 m/S 647 mmHg 51%
    17:00 +12°C° 0 mm 3 m/S 647 mmHg 58%
    18:00 +11°C° 0 mm 3 m/S 647 mmHg 66%
    19:00 +9°C° 0 mm 3 m/S 647 mmHg 74%
    20:00 +8°C° 0 mm 2 m/S 647 mmHg 80%
    21:00 +6°C° 0 mm 2 m/S 646 mmHg 87%
    22:00 +5°C° 0 mm 1 m/S 646 mmHg 94%
    23:00 +4°C° 0 mm 1 m/S 646 mmHg 94%

    1 Juni, Montag

    Zeit Temperatur Niederschläge Wind Luftdruck Luftfeuchtigkeit
    00:00 +4°C° 0 mm 1 m/S 646 mmHg 95%
    01:00 +4°C° 0 mm 1 m/S 645 mmHg 95%
    02:00 +3°C° 0 mm 1 m/S 645 mmHg 94%
    03:00 +3°C° 0 mm 1 m/S 645 mmHg 94%
    04:00 +3°C° 0 mm 1 m/S 645 mmHg 94%
    05:00 +5°C° 0 mm 1 m/S 645 mmHg 89%
    06:00 +6°C° 0 mm 1 m/S 646 mmHg 84%
    07:00 +7°C° 0 mm 0 m/S 646 mmHg 79%
    08:00 +9°C° 0 mm 1 m/S 646 mmHg 73%
    09:00 +11°C° 0 mm 1 m/S 647 mmHg 67%
    10:00 +13°C° 0 mm 2 m/S 647 mmHg 61%
    11:00 +14°C° 0 mm 2 m/S 647 mmHg 57%
    12:00 +15°C° 0 mm 2 m/S 647 mmHg 54%
    13:00 +16°C° 0 mm 2 m/S 647 mmHg 50%
    14:00 +17°C° 0 mm 2 m/S 647 mmHg 51%
    15:00 +17°C° 0 mm 2 m/S 647 mmHg 52%
    16:00 +17°C° 0 mm 2 m/S 647 mmHg 53%
    17:00 +16°C° 0.1 mm 2 m/S 646 mmHg 61%
    18:00 +15°C° 0.1 mm 2 m/S 646 mmHg 68%
    19:00 +14°C° 0.1 mm 2 m/S 646 mmHg 76%
    20:00 +12°C° 0 mm 2 m/S 645 mmHg 81%
    21:00 +10°C° 0 mm 1 m/S 645 mmHg 86%
    22:00 +8°C° 0 mm 1 m/S 645 mmHg 91%
    23:00 +8°C° 0 mm 1 m/S 644 mmHg 91%

    2 Juni, Dienstag

    Zeit Temperatur Niederschläge Wind Luftdruck Luftfeuchtigkeit
    00:00 +7°C° 0 mm 1 m/S 644 mmHg 91%
    01:00 +7°C° 0 mm 1 m/S 644 mmHg 91%
    02:00 +7°C° 0 mm 1 m/S 644 mmHg 91%
    03:00 +6°C° 0 mm 1 m/S 643 mmHg 91%
    04:00 +6°C° 0 mm 1 m/S 643 mmHg 91%
    05:00 +8°C° 0 mm 1 m/S 644 mmHg 87%
    06:00 +9°C° 0 mm 1 m/S 644 mmHg 83%
    07:00 +10°C° 0 mm 0 m/S 645 mmHg 78%
    08:00 +12°C° 0 mm 1 m/S 645 mmHg 73%
    09:00 +14°C° 0 mm 1 m/S 645 mmHg 69%
    10:00 +15°C° 0 mm 2 m/S 646 mmHg 64%
    11:00 +16°C° 0.1 mm 2 m/S 646 mmHg 61%
    12:00 +17°C° 0.1 mm 2 m/S 646 mmHg 58%
    13:00 +18°C° 0.1 mm 2 m/S 646 mmHg 55%
    14:00 +18°C° 0.1 mm 3 m/S 645 mmHg 54%
    15:00 +18°C° 0.1 mm 3 m/S 645 mmHg 53%
    16:00 +18°C° 0.1 mm 3 m/S 645 mmHg 52%
    17:00 +16°C° 0 mm 3 m/S 645 mmHg 59%
    18:00 +14°C° 0 mm 3 m/S 644 mmHg 66%
    19:00 +14°C° 0 mm 2 m/S 644 mmHg 72%
    20:00 +12°C° 0 mm 2 m/S 644 mmHg 78%
    21:00 +10°C° 0 mm 1 m/S 643 mmHg 84%
    22:00 +8°C° 0 mm 1 m/S 643 mmHg 89%
    23:00 +7°C° 0 mm 1 m/S 643 mmHg 90%
    Mehr zeigen